When you browse on this site, cookies collect data to enhance your experience and personalize the content and advertising you see.
Visit our Privacy Policy to learn more. By continuing to use the site, you agree to this use of cookies and data.
  • In Österreich
  • Länderverzeichnis
  • Für 7 Tage
  • Wassertemperatur
  • Wetterkarte
  • News
  • Widgets
  • user-avatar
    Anmelden

    Stündliche Wetter Mohyliv-Podil'sky

    Heute, 20 August, Dienstag

    Zeit Temperatur Niederschläge Wind Luftdruck Luftfeuchtigkeit
    00:00 +20°C° 0 mm 2 m/S 745 mmHg 49%
    01:00 +21°C° 0 mm 1 m/S 745 mmHg 49%
    02:00 +19°C° 0 mm 2 m/S 745 mmHg 50%
    03:00 +20°C° 0 mm 1 m/S 745 mmHg 50%
    04:00 +20°C° 0 mm 1 m/S 746 mmHg 51%
    05:00 +19°C° 0 mm 1 m/S 746 mmHg 51%
    06:00 +21°C° 0 mm 1 m/S 746 mmHg 47%
    07:00 +23°C° 0 mm 1 m/S 746 mmHg 43%
    08:00 +26°C° 0 mm 1 m/S 747 mmHg 38%
    09:00 +28°C° 0 mm 1 m/S 747 mmHg 34%
    10:00 +29°C° 0 mm 2 m/S 747 mmHg 31%
    11:00 +31°C° 0 mm 2 m/S 747 mmHg 27%
    12:00 +32°C° 0 mm 2 m/S 747 mmHg 26%
    13:00 +34°C° 0 mm 2 m/S 747 mmHg 24%
    14:00 +35°C° 0 mm 2 m/S 747 mmHg 23%
    15:00 +34°C° 0 mm 2 m/S 747 mmHg 23%
    16:00 +34°C° 0 mm 2 m/S 747 mmHg 23%
    17:00 +34°C° 0 mm 2 m/S 746 mmHg 23%
    18:00 +31°C° 0 mm 2 m/S 747 mmHg 28%
    19:00 +28°C° 0 mm 2 m/S 747 mmHg 33%
    20:00 +25°C° 0 mm 2 m/S 747 mmHg 38%
    21:00 +25°C° 0 mm 2 m/S 747 mmHg 40%
    22:00 +24°C° 0 mm 2 m/S 747 mmHg 42%
    23:00 +23°C° 0 mm 2 m/S 747 mmHg 44%

    Morgen, 21 August, Mittwoch

    Zeit Temperatur Niederschläge Wind Luftdruck Luftfeuchtigkeit
    00:00 +21°C° 0 mm 2 m/S 747 mmHg 45%
    01:00 +21°C° 0 mm 2 m/S 747 mmHg 47%
    02:00 +20°C° 0 mm 2 m/S 747 mmHg 49%
    03:00 +20°C° 0 mm 2 m/S 747 mmHg 50%
    04:00 +20°C° 0 mm 2 m/S 746 mmHg 52%
    05:00 +19°C° 0 mm 2 m/S 746 mmHg 53%
    06:00 +21°C° 0 mm 2 m/S 747 mmHg 50%
    07:00 +24°C° 0 mm 2 m/S 747 mmHg 46%
    08:00 +27°C° 0 mm 2 m/S 747 mmHg 42%
    09:00 +28°C° 0 mm 2 m/S 747 mmHg 38%
    10:00 +30°C° 0 mm 2 m/S 747 mmHg 34%
    11:00 +32°C° 0 mm 2 m/S 747 mmHg 30%
    12:00 +32°C° 0 mm 2 m/S 746 mmHg 28%
    13:00 +34°C° 0 mm 2 m/S 746 mmHg 26%
    14:00 +34°C° 0 mm 1 m/S 746 mmHg 24%
    15:00 +35°C° 0 mm 2 m/S 746 mmHg 24%
    16:00 +34°C° 0 mm 2 m/S 745 mmHg 24%
    17:00 +34°C° 0 mm 3 m/S 745 mmHg 25%
    18:00 +31°C° 0 mm 3 m/S 745 mmHg 31%
    19:00 +28°C° 0 mm 2 m/S 745 mmHg 36%
    20:00 +26°C° 0 mm 2 m/S 746 mmHg 42%
    21:00 +25°C° 0 mm 2 m/S 746 mmHg 45%
    22:00 +24°C° 0 mm 2 m/S 746 mmHg 48%
    23:00 +23°C° 0 mm 2 m/S 746 mmHg 51%

    übermorgen, 22 August, Donnerstag

    Zeit Temperatur Niederschläge Wind Luftdruck Luftfeuchtigkeit
    00:00 +21°C° 0 mm 2 m/S 746 mmHg 56%
    01:00 +21°C° 0 mm 2 m/S 747 mmHg 60%
    02:00 +20°C° 0 mm 3 m/S 747 mmHg 65%
    03:00 +20°C° 0 mm 3 m/S 747 mmHg 73%
    04:00 +20°C° 0 mm 4 m/S 747 mmHg 81%
    05:00 +20°C° 0 mm 5 m/S 747 mmHg 89%
    06:00 +21°C° 0 mm 5 m/S 747 mmHg 85%
    07:00 +21°C° 0 mm 5 m/S 747 mmHg 80%
    08:00 +22°C° 0 mm 5 m/S 748 mmHg 76%
    09:00 +23°C° 0 mm 5 m/S 748 mmHg 73%
    10:00 +23°C° 0 mm 6 m/S 748 mmHg 71%
    11:00 +23°C° 0 mm 6 m/S 748 mmHg 68%
    12:00 +24°C° 0 mm 6 m/S 748 mmHg 64%
    13:00 +26°C° 0 mm 6 m/S 748 mmHg 61%
    14:00 +27°C° 0 mm 6 m/S 748 mmHg 57%
    15:00 +26°C° 0 mm 6 m/S 748 mmHg 59%
    16:00 +26°C° 0 mm 6 m/S 748 mmHg 60%
    17:00 +24°C° 0 mm 6 m/S 748 mmHg 62%
    18:00 +22°C° 0 mm 5 m/S 748 mmHg 68%
    19:00 +21°C° 0 mm 4 m/S 748 mmHg 74%
    20:00 +19°C° 0 mm 4 m/S 748 mmHg 80%
    21:00 +19°C° 0 mm 3 m/S 749 mmHg 83%
    22:00 +18°C° 0 mm 3 m/S 749 mmHg 86%
    23:00 +17°C° 0 mm 3 m/S 749 mmHg 89%

    23 August, Freitag

    Zeit Temperatur Niederschläge Wind Luftdruck Luftfeuchtigkeit
    00:00 +17°C° 0 mm 3 m/S 749 mmHg 89%
    01:00 +17°C° 0 mm 3 m/S 748 mmHg 90%
    02:00 +17°C° 0 mm 3 m/S 748 mmHg 91%
    03:00 +16°C° 0 mm 3 m/S 748 mmHg 92%
    04:00 +16°C° 0 mm 3 m/S 748 mmHg 93%
    05:00 +16°C° 0 mm 3 m/S 748 mmHg 93%
    06:00 +17°C° 0 mm 3 m/S 748 mmHg 87%
    07:00 +19°C° 0 mm 3 m/S 748 mmHg 80%
    08:00 +20°C° 0 mm 4 m/S 749 mmHg 74%
    09:00 +22°C° 0 mm 4 m/S 749 mmHg 68%
    10:00 +23°C° 0 mm 4 m/S 749 mmHg 62%
    11:00 +26°C° 0 mm 4 m/S 749 mmHg 56%
    12:00 +26°C° 0 mm 4 m/S 749 mmHg 53%
    13:00 +27°C° 0 mm 4 m/S 749 mmHg 51%
    14:00 +28°C° 0 mm 5 m/S 748 mmHg 49%
    15:00 +28°C° 0 mm 5 m/S 748 mmHg 50%
    16:00 +28°C° 0 mm 5 m/S 748 mmHg 50%
    17:00 +28°C° 0 mm 5 m/S 748 mmHg 51%
    18:00 +26°C° 0 mm 5 m/S 748 mmHg 57%
    19:00 +23°C° 0 mm 4 m/S 748 mmHg 64%
    20:00 +21°C° 0 mm 4 m/S 749 mmHg 70%
    21:00 +20°C° 0 mm 3 m/S 749 mmHg 73%
    22:00 +19°C° 0 mm 3 m/S 749 mmHg 75%
    23:00 +18°C° 0 mm 3 m/S 749 mmHg 78%

    24 August, Samstag

    Zeit Temperatur Niederschläge Wind Luftdruck Luftfeuchtigkeit
    00:00 +18°C° 0 mm 3 m/S 749 mmHg 80%
    01:00 +17°C° 0 mm 3 m/S 749 mmHg 83%
    02:00 +16°C° 0 mm 3 m/S 749 mmHg 85%
    03:00 +16°C° 0 mm 3 m/S 749 mmHg 87%
    04:00 +16°C° 0 mm 3 m/S 749 mmHg 90%
    05:00 +14°C° 0 mm 3 m/S 749 mmHg 92%
    06:00 +17°C° 0 mm 3 m/S 749 mmHg 84%
    07:00 +19°C° 0 mm 3 m/S 749 mmHg 76%
    08:00 +21°C° 0 mm 4 m/S 749 mmHg 68%
    09:00 +22°C° 0 mm 4 m/S 749 mmHg 60%
    10:00 +25°C° 0 mm 4 m/S 749 mmHg 52%
    11:00 +27°C° 0 mm 4 m/S 749 mmHg 43%
    12:00 +28°C° 0 mm 3 m/S 749 mmHg 40%
    13:00 +29°C° 0 mm 3 m/S 748 mmHg 36%
    14:00 +30°C° 0 mm 3 m/S 748 mmHg 33%
    15:00 +30°C° 0 mm 3 m/S 748 mmHg 34%
    16:00 +30°C° 0 mm 4 m/S 747 mmHg 35%
    17:00 +29°C° 0 mm 4 m/S 747 mmHg 36%
    18:00 +27°C° 0 mm 4 m/S 747 mmHg 46%
    19:00 +25°C° 0 mm 4 m/S 747 mmHg 57%
    20:00 +21°C° 0 mm 4 m/S 747 mmHg 67%
    21:00 +20°C° 0 mm 4 m/S 747 mmHg 72%
    22:00 +19°C° 0 mm 3 m/S 747 mmHg 77%
    23:00 +18°C° 0 mm 3 m/S 747 mmHg 82%

    25 August, Sonntag

    Zeit Temperatur Niederschläge Wind Luftdruck Luftfeuchtigkeit
    00:00 +18°C° 0 mm 3 m/S 747 mmHg 84%
    01:00 +18°C° 0 mm 3 m/S 747 mmHg 85%
    02:00 +17°C° 0 mm 3 m/S 747 mmHg 87%
    03:00 +17°C° 0 mm 2 m/S 747 mmHg 88%
    04:00 +17°C° 0 mm 2 m/S 747 mmHg 88%
    05:00 +16°C° 0 mm 2 m/S 747 mmHg 89%
    06:00 +18°C° 0 mm 2 m/S 747 mmHg 80%
    07:00 +20°C° 0 mm 2 m/S 747 mmHg 71%
    08:00 +23°C° 0 mm 2 m/S 747 mmHg 62%
    09:00 +25°C° 0 mm 2 m/S 747 mmHg 54%
    10:00 +27°C° 0 mm 2 m/S 747 mmHg 45%
    11:00 +29°C° 0 mm 2 m/S 747 mmHg 36%
    12:00 +30°C° 0 mm 2 m/S 747 mmHg 33%
    13:00 +31°C° 0 mm 2 m/S 747 mmHg 30%
    14:00 +32°C° 0 mm 2 m/S 747 mmHg 27%
    15:00 +32°C° 0 mm 2 m/S 747 mmHg 28%
    16:00 +33°C° 0 mm 3 m/S 746 mmHg 28%
    17:00 +31°C° 0 mm 3 m/S 746 mmHg 29%
    18:00 +29°C° 0 mm 4 m/S 746 mmHg 34%
    19:00 +27°C° 0 mm 4 m/S 746 mmHg 39%
    20:00 +23°C° 0 mm 4 m/S 746 mmHg 44%
    21:00 +22°C° 0 mm 4 m/S 747 mmHg 45%
    22:00 +21°C° 0 mm 4 m/S 747 mmHg 45%
    23:00 +20°C° 0 mm 4 m/S 747 mmHg 46%
    Mehr zeigen